Location: Central Falls
(41.8900°N, 71.3929°W)
Time: 10:59:41
(UTC+00:00)

A-11 Canister half - Pass Details

Date: 07 December 2023
Orbit: 1512 x 1687 km, 47.2° (Epoch: 20 February)

Event Time Altitude Azimuth Distance (km) Brightness Sun altitude
Rises 09:10:35 0° 292° (WNW) 4,828 - -30.6°
Reaches altitude 10° 09:13:40 10° 294° (WNW) 3,863 - -30.0°
Exits shadow 09:20:20 50° 299° (WNW) 2,037 9.2 -28.8°
Maximum altitude 09:23:39 85° 24° (NNE) 1,675 9.0 -28.2°
Drops below altitude 10° 09:33:52 10° 113° (ESE) 3,947 12.1 -26.3°
Sets 09:37:03 0° 114° (ESE) 4,936 12.9 -25.7°
